Vorticity
9 8 9 10 10 9 10 10 10 10 11 11 12 12 11 10 8 8 9 9 8 8 6 6 7 5 3 -2 -5 1 5 6 9 11 11 12 13 16 18 19 19 17 15 15 12 10 9 7 8 8 5 7 8 7 6 7 10 7 2 -1 2 14 17 3 -3 6 14 12 0 -3 9 11 2 1 2 0 2 3 3 3 4 4 3 4 5 3
8 7 9 12 12 11 10 10 10 10 12 11 12 13 12 12 12 11 9 9 11 11 10 9 6 4 2 0 1 4 5 7 10 10 11 12 12 14 15 16 19 19 17 17 14 11 10 8 7 8 7 6 7 8 6 5 7 7 6 1 -3 4 16 13 3 1 5 9 7 8 13 7 1 2 1 0 3 3 3 3 2 4 5 5 4 3
7 8 10 11 13 14 12 11 9 8 10 12 12 14 13 12 14 17 15 14 12 10 11 12 10 9 7 6 7 8 8 10 12 13 13 14 14 13 13 14 15 18 17 16 17 14 11 10 8 7 8 6 7 9 7 5 5 7 6 3 -0 2 9 11 7 5 4 6 11 13 10 4 1 3 1 0 2 2 3 2 1 2 5 4 3 6
4 8 9 8 12 17 17 16 14 10 10 10 7 7 8 9 12 15 16 16 14 11 12 12 12 13 14 15 15 13 14 12 12 11 11 14 16 17 17 16 14 16 18 16 16 17 14 12 10 8 8 7 6 7 8 7 5 7 7 3 2 1 7 11 5 3 9 10 11 11 11 11 8 5 2 1 1 2 2 2 2 1 3 3 2 6
3 7 6 3 7 16 17 17 18 15 13 10 8 8 7 5 7 9 9 9 11 12 12 10 12 16 15 15 15 14 12 8 6 3 3 5 7 12 16 19 19 16 16 16 15 17 18 16 12 9 8 7 7 6 7 9 6 7 8 5 3 -1 2 8 2 2 10 11 9 9 9 11 12 5 1 2 1 2 4 2 2 2 3 5 4 5
4 8 7 2 6 12 13 14 16 16 16 12 10 12 12 8 7 8 7 8 9 10 12 10 8 8 6 5 6 8 7 5 3 2 2 3 3 5 8 14 20 21 20 17 13 14 18 20 16 13 10 6 7 6 6 7 7 7 8 8 6 2 2 2 1 7 12 13 15 15 10 11 14 5 0 7 3 0 3 2 2 3 6 10 4 2
6 7 6 3 5 10 10 8 10 14 17 12 8 12 16 17 16 14 12 11 10 8 9 9 4 3 6 8 8 9 7 6 8 7 6 6 7 7 6 7 11 16 21 21 18 13 14 21 21 17 14 9 6 6 6 6 7 8 6 9 8 5 5 1 2 11 19 24 22 20 20 14 11 5 -1 4 3 1 2 2 4 6 11 14 5 2
8 7 4 3 4 7 9 8 7 11 15 14 12 11 13 16 18 19 18 16 14 12 11 14 10 6 9 12 13 13 10 13 16 13 12 12 12 12 11 10 8 9 12 16 21 18 12 16 21 21 18 14 9 6 7 6 6 8 6 8 9 8 6 1 5 13 18 18 11 28 49 29 10 8 2 -1 1 3 2 0 4 8 13 12 3 5
7 8 5 4 3 2 5 10 10 9 12 15 14 13 11 12 13 15 17 17 16 14 14 17 17 12 11 12 14 16 15 18 19 15 15 15 13 13 11 10 9 9 8 9 14 19 17 14 17 22 20 18 15 8 7 6 6 8 7 7 8 11 8 1 7 8 0 -7 -12 19 54 37 15 9 1 4 9 5 -0 -1 5 8 10 8 1 5
2 7 8 7 5 2 1 7 8 6 10 13 12 13 13 11 10 11 12 13 14 15 13 13 16 13 9 9 14 21 21 16 12 9 10 10 11 12 10 7 4 4 5 7 7 9 16 17 16 19 20 20 20 15 9 6 7 7 7 8 7 10 9 3 6 2 -8 -7 -8 1 18 16 12 4 -1 10 14 8 1 -4 4 9 7 6 2 4
2 5 8 9 8 5 4 8 7 5 10 17 16 12 12 12 11 11 13 13 14 16 14 15 18 13 11 14 13 18 23 17 11 11 9 8 9 7 5 4 2 3 7 13 17 13 9 13 16 17 19 19 19 20 16 7 5 7 7 8 7 8 9 5 7 3 -7 -0 7 2 -1 3 11 7 4 11 8 8 7 -2 2 9 8 7 2 2
4 4 5 7 8 6 8 11 8 5 7 14 18 13 11 13 9 8 14 15 14 11 11 18 22 19 20 15 4 7 17 14 10 11 9 7 6 4 5 5 4 5 7 13 25 31 21 11 11 14 17 21 18 18 21 14 6 6 7 8 6 7 8 3 5 10 -0 -3 6 7 -2 2 17 16 7 10 10 7 7 3 4 6 6 5 2 4
6 6 5 5 7 5 6 9 6 6 2 2 13 18 13 9 8 10 10 10 11 9 10 16 16 17 18 7 1 8 12 11 13 15 15 16 15 16 16 13 9 5 4 6 14 30 37 24 12 10 11 20 23 17 19 21 11 5 7 8 6 7 9 3 0 9 8 1 5 10 2 -1 15 22 10 5 13 15 9 5 4 4 6 5 0 4
7 6 5 3 5 3 3 6 5 5 4 -0 10 21 17 10 13 12 6 8 11 4 5 10 7 7 10 9 9 8 4 7 12 12 14 18 18 19 20 19 19 12 6 7 9 20 36 35 21 12 6 11 23 22 17 21 19 9 5 8 8 5 7 6 -0 3 7 5 4 6 9 4 4 17 18 4 4 17 21 11 1 2 6 5 3 5
9 7 6 3 4 2 -1 3 3 5 8 5 9 19 17 10 12 11 5 8 10 4 5 10 9 6 7 10 10 4 3 6 6 6 12 18 18 15 16 21 28 28 17 7 8 17 31 37 30 19 9 4 14 24 21 18 21 17 7 6 10 6 4 7 4 2 3 6 2 -0 8 8 -3 -1 8 7 -1 7 33 31 5 2 8 2 3 7
16 13 11 7 4 2 1 1 2 5 8 7 8 13 15 14 13 13 9 7 8 9 9 10 11 10 7 9 7 2 4 4 2 5 10 13 12 7 9 15 21 31 31 15 7 17 27 34 34 26 15 4 5 18 24 20 20 21 14 6 8 9 4 4 6 6 4 5 4 1 4 5 1 -5 -8 2 2 -2 35 54 12 -6 11 6 -1 6
17 13 10 11 8 5 5 3 3 5 8 10 7 4 12 20 17 12 9 9 9 11 11 10 9 6 6 8 4 2 4 1 0 5 8 10 8 3 5 12 15 22 33 25 10 14 25 28 33 33 23 10 3 8 20 24 20 20 20 12 6 9 7 2 4 7 7 7 6 4 5 2 3 4 -6 -4 4 -3 20 52 26 -2 9 9 -0 3
14 15 12 13 13 10 10 9 8 8 9 11 8 2 7 17 19 14 7 4 6 7 8 8 4 4 7 2 -3 2 5 3 3 7 10 10 8 4 1 10 21 23 32 36 17 10 21 22 22 31 31 21 11 3 10 22 23 20 22 18 10 7 9 5 1 5 7 7 8 7 6 3 -0 5 2 -3 6 5 3 21 28 16 11 11 6 1
14 16 10 11 14 14 15 15 13 11 8 7 7 6 7 10 13 13 8 5 8 11 10 7 7 10 8 -1 -1 9 9 6 9 9 9 9 7 8 6 11 21 20 28 44 30 11 15 17 13 18 27 29 24 12 5 12 22 24 21 21 17 9 8 8 2 3 6 4 7 9 5 4 0 1 6 4 3 7 6 6 16 23 17 11 9 2
13 12 8 8 12 14 15 13 10 7 6 7 8 7 8 9 8 9 11 11 11 12 10 6 7 9 4 -2 4 12 9 7 7 3 3 6 6 9 9 9 13 13 20 42 45 22 12 15 12 8 14 23 29 27 17 8 13 24 24 21 22 15 8 10 5 0 4 3 3 7 8 6 4 -0 -1 4 3 3 8 5 5 19 23 18 18 8
12 12 10 7 7 10 10 7 5 3 3 5 5 5 8 9 9 9 11 10 6 8 9 3 1 5 3 -1 1 5 7 7 6 3 2 5 9 13 11 6 6 7 11 31 49 37 18 17 14 8 8 12 20 29 31 22 13 19 25 22 22 22 12 9 10 1 0 6 2 3 9 7 8 7 -1 1 9 11 15 10 1 10 19 23 36 29
12 11 10 8 6 6 6 7 5 4 6 7 4 6 7 7 9 12 10 6 2 4 6 -1 -1 6 6 0 -0 2 4 5 7 9 7 7 11 14 12 9 10 11 9 21 44 44 29 24 17 8 7 8 11 20 29 32 24 18 24 24 21 25 20 10 12 7 -0 3 2 -0 6 8 6 7 5 5 7 11 20 18 4 4 6 7 25 38
13 11 10 9 7 6 8 9 6 6 10 10 7 6 4 4 7 9 8 4 1 3 5 1 2 9 6 -0 2 6 6 6 8 8 6 7 9 11 15 16 18 21 15 16 35 43 34 31 25 11 6 6 7 13 20 26 27 23 23 24 21 23 26 17 12 12 5 1 3 -1 -2 5 6 3 8 9 -1 -1 13 17 10 9 4 -0 7 21
12 12 11 10 7 7 8 7 7 11 11 7 6 5 1 1 4 7 8 5 6 9 6 4 8 9 4 1 4 7 8 8 8 6 5 5 6 9 15 13 13 23 21 13 27 41 33 29 32 20 7 6 6 8 16 19 22 24 22 22 23 22 25 24 16 14 11 3 3 3 -5 -3 3 5 11 10 1 1 7 7 10 11 3 3 7 3
11 11 12 13 10 7 6 6 7 9 6 3 6 7 3 3 6 10 9 7 10 10 2 8 14 7 2 4 4 5 6 6 8 8 5 4 4 7 9 10 13 21 24 16 21 39 39 27 28 26 13 9 10 8 13 17 18 20 21 19 22 23 25 26 21 17 16 9 4 4 0 -5 -4 4 10 7 4 7 6 2 5 7 2 7 14 4
10 11 12 14 14 10 6 5 3 2 2 4 9 8 5 7 10 11 10 9 10 6 3 11 11 1 2 5 1 2 4 5 9 9 6 4 5 6 4 8 18 19 18 14 10 27 46 35 22 24 18 9 11 12 12 18 19 17 18 18 18 23 26 25 22 21 17 13 10 6 5 2 -4 -2 5 3 4 5 2 2 2 0 5 8 7 8
8 10 11 13 14 12 10 9 7 8 10 9 10 9 9 11 10 8 10 10 8 6 8 10 4 1 7 7 4 6 6 7 9 8 8 6 6 7 3 4 17 20 13 11 7 12 39 50 32 18 18 12 6 9 11 15 21 19 15 17 16 19 26 26 22 23 20 15 13 9 8 9 2 -4 -1 1 3 2 1 6 3 -3 6 11 1 2
6 8 10 11 11 11 13 13 12 13 14 12 11 11 11 10 7 6 10 10 8 10 11 8 5 6 9 8 7 8 6 9 10 7 8 8 6 8 5 1 10 19 17 16 15 6 15 48 53 26 14 16 8 6 10 10 17 23 17 15 16 15 23 28 21 21 26 19 12 11 11 11 3 -1 5 3 -2 -1 1 5 4 -3 -1 9 5 -2
6 7 8 9 11 10 12 13 11 12 13 12 13 13 9 8 8 9 10 9 9 10 9 8 8 7 8 9 7 6 7 9 9 8 8 8 8 8 7 5 5 14 20 16 17 14 4 27 61 48 19 15 13 7 11 11 12 22 20 14 17 15 17 26 23 19 27 25 14 10 16 14 -2 -6 11 11 -3 -2 4 3 4 1 -1 5 7 -0
9 7 5 8 10 8 11 13 12 12 14 13 13 12 10 10 11 11 9 9 9 8 9 10 7 6 9 8 3 6 11 10 8 8 7 6 10 9 7 8 5 8 17 13 11 24 18 13 45 61 34 17 18 10 10 16 15 20 23 16 16 16 14 21 25 19 24 29 19 6 11 17 1 -7 21 27 -3 -10 2 3 3 5 4 4 6 6
11 8 5 7 9 9 9 10 13 15 14 12 11 10 11 10 9 10 11 9 7 6 8 7 5 9 10 5 5 10 11 10 8 7 8 8 10 10 6 7 8 6 12 13 6 18 28 17 29 58 48 23 22 18 11 19 21 21 25 19 15 17 15 19 23 21 25 28 20 7 7 17 5 -12 20 48 19 -10 -6 1 4 7 10 12 7 6
12 12 8 4 7 11 8 4 11 14 12 14 15 11 10 10 10 14 14 8 5 6 8 7 6 10 7 3 9 13 8 9 10 7 10 13 10 9 8 6 8 8 8 11 8 9 25 24 21 45 53 29 21 24 18 21 27 26 26 21 16 16 16 18 19 19 26 25 19 14 6 12 12 -15 -8 34 37 10 -6 -6 1 0 -0 13 15 8
11 14 11 4 6 11 7 4 9 11 12 16 15 9 10 12 13 14 10 6 6 7 8 9 7 7 7 7 13 14 10 11 13 10 12 16 12 8 9 6 7 9 7 9 12 7 15 24 18 31 50 37 19 22 26 28 30 29 24 17 14 15 14 16 17 17 23 21 19 21 9 3 14 4 -10 4 21 26 15 -7 -12 -9 -6 9 12 2
10 15 13 6 5 8 8 5 6 10 14 12 7 8 13 14 11 8 7 8 8 7 8 9 8 7 10 12 12 13 14 12 12 12 11 13 13 8 6 7 6 9 8 8 12 8 7 18 19 22 41 44 26 18 27 35 32 27 23 14 11 16 15 13 15 17 22 20 15 21 21 8 3 6 6 -1 -9 8 32 20 -5 -14 -4 16 14 -4
8 13 14 9 6 7 8 6 6 11 12 7 6 10 12 11 10 9 11 11 7 7 9 8 8 10 11 13 12 11 14 12 11 12 9 9 13 8 4 7 6 8 11 8 10 9 4 11 16 14 26 42 36 21 22 35 35 23 19 16 11 15 16 14 15 14 17 22 15 13 22 23 12 6 15 26 12 -3 15 40 33 0 -15 -1 7 -2
6 10 13 12 10 8 7 6 8 10 9 7 9 10 10 10 10 10 13 12 6 6 11 8 8 11 9 9 12 11 12 13 12 11 9 8 10 8 6 8 8 8 11 10 8 6 4 13 18 12 16 29 35 28 22 29 36 25 13 11 11 13 12 12 16 14 12 17 17 12 13 20 25 10 -8 13 44 28 -1 11 34 24 2 0 6 3
6 9 11 12 13 12 7 4 7 10 9 7 8 10 11 10 9 8 10 11 8 8 12 9 7 11 10 9 12 12 11 14 13 10 9 9 9 9 8 8 7 8 9 10 10 5 5 15 14 9 20 28 26 28 27 25 32 34 21 8 5 10 12 9 11 13 13 13 14 16 14 11 20 20 -9 -14 23 37 14 5 23 35 25 9 5 7
7 9 9 9 13 15 10 6 8 10 7 6 8 10 11 9 8 9 9 12 14 10 8 8 9 11 11 9 11 12 11 13 13 11 11 12 9 10 12 9 7 10 9 8 12 7 5 13 7 -0 23 42 28 20 28 29 26 31 34 25 12 6 8 11 13 12 12 13 11 11 14 11 8 14 14 6 8 8 -1 -3 15 41 47 30 12 -0
8 7 7 8 11 13 11 8 10 9 5 6 10 11 11 10 8 7 9 15 14 6 5 10 12 11 10 9 10 11 11 13 14 13 15 16 11 10 15 13 9 10 9 8 12 9 3 11 8 -7 8 41 41 21 19 29 30 24 26 32 29 17 8 6 11 14 13 15 16 10 10 13 7 1 3 11 17 13 -2 -19 -21 -3 21 40 46 31
9 8 7 8 10 11 13 12 11 8 5 5 9 10 11 10 7 8 14 14 7 5 10 13 10 10 9 8 9 9 9 12 14 15 17 17 14 12 14 14 10 8 8 7 10 9 5 8 9 -4 -5 20 43 38 21 19 29 30 22 22 28 28 21 12 9 12 12 12 14 13 9 8 9 7 0 -2 6 14 17 13 4 -9 -19 -13 14 39
8 9 8 7 8 9 13 15 12 9 6 5 8 11 10 8 9 12 12 6 3 8 13 11 9 10 9 8 8 9 9 11 13 15 17 18 18 16 14 15 12 9 9 9 8 7 7 8 8 3 -2 0 15 33 32 21 23 30 28 24 23 23 25 23 17 14 14 12 10 11 11 8 3 3 4 2 2 1 2 12 23 26 11 -12 -23 -13
7 9 9 7 7 8 11 14 13 11 9 7 8 10 8 7 11 11 5 4 8 11 10 9 10 10 8 8 8 8 9 10 11 13 15 18 20 20 18 17 14 10 10 11 10 7 5 8 9 7 7 3 -5 2 16 20 22 28 30 29 27 23 22 25 26 23 19 17 16 13 13 13 10 6 2 -1 2 5 3 2 6 15 23 22 13 -0
6 9 10 8 6 7 10 12 12 11 11 11 10 9 8 9 10 8 6 8 10 9 8 9 9 8 8 9 8 8 9 10 11 12 12 14 18 21 21 18 14 11 10 9 11 10 5 6 10 7 8 12 5 -3 -2 3 11 22 28 31 31 28 22 19 22 25 24 23 24 24 21 18 15 12 9 2 -1 -1 1 3 5 5 7 12 19 21
6 7 9 8 6 8 9 11 11 10 12 14 11 8 8 9 10 9 9 10 9 8 9 8 8 8 9 8 8 9 9 8 10 12 10 10 13 17 20 20 16 13 13 9 9 11 9 7 8 7 7 9 8 5 3 1 2 7 13 20 28 35 34 27 20 19 19 18 18 21 26 30 27 22 16 10 5 1 -0 1 2 3 6 6 8 12
7 6 7 8 8 8 9 9 8 9 13 15 13 9 7 7 9 10 10 10 9 9 9 8 8 9 8 8 8 9 9 8 9 11 10 9 11 13 15 20 21 16 14 13 10 9 10 9 6 6 10 10 4 3 3 1 2 3 3 5 10 19 30 37 38 33 28 24 20 14 14 20 27 30 28 20 13 8 4 5 5 4 4 3 5 9
7 5 7 10 11 10 10 8 5 7 14 17 14 11 8 7 7 8 9 9 9 10 9 8 8 8 8 9 8 8 10 10 7 9 10 8 10 12 12 17 23 22 18 14 11 9 9 10 9 7 10 10 5 3 4 2 1 4 7 8 7 5 5 11 20 27 30 33 34 29 22 19 20 25 28 27 24 18 12 9 9 7 7 5 3 6
7 5 9 13 13 9 7 6 6 8 13 15 12 10 9 9 8 8 8 9 9 10 10 8 8 9 9 9 9 9 11 10 7 8 9 9 10 11 11 13 18 22 23 19 14 10 7 8 9 8 9 11 7 4 7 9 8 7 7 9 13 15 11 2 -4 -4 2 11 20 26 30 33 32 30 30 28 25 23 19 15 12 10 10 10 6 1
7 6 9 12 12 8 4 4 7 9 10 10 10 10 9 9 9 9 8 9 10 10 10 8 8 10 10 9 9 10 10 10 9 8 7 8 10 9 9 11 12 15 21 24 22 17 11 7 6 5 7 10 10 7 7 7 9 11 8 6 8 13 16 13 3 -4 -4 1 9 16 18 20 26 33 39 39 32 25 20 16 14 13 11 10 11 6
5 6 8 10 11 7 4 5 8 10 9 9 10 11 9 9 10 8 7 8 10 10 9 9 10 10 10 9 9 10 10 9 9 9 8 8 9 8 7 8 9 10 13 17 22 24 21 16 12 6 5 6 7 10 11 9 8 7 5 5 6 8 14 16 11 7 6 7 14 22 22 22 29 41 56 60 44 27 23 20 14 13 13 10 14 15
6 8 8 10 10 6 4 7 10 11 10 8 9 10 11 11 11 9 7 8 9 9 9 9 10 11 11 10 9 10 10 9 8 9 9 8 8 9 8 6 6 8 8 9 14 18 20 24 23 16 9 5 4 7 11 13 12 8 4 4 4 4 10 15 13 13 13 9 14 25 30 33 35 40 65 89 71 34 22 24 16 11 13 11 12 17
11 11 7 8 10 8 6 7 9 11 11 9 8 10 11 12 12 11 9 9 9 8 8 8 9 11 12 10 9 9 9 9 8 8 9 10 9 8 8 7 6 7 7 8 10 10 11 17 24 25 19 11 7 6 6 9 13 11 7 7 5 3 6 10 12 15 14 11 16 22 26 34 39 34 49 86 95 66 35 22 16 12 11 10 9 12
Height
5731 5729 5728 5727 5726 5725 5724 5723 5722 5721 5721 5721 5720 5720 5720 5720 5719 5718 5718 5717 5718 5718 5718 5718 5719 5718 5718 5718 5718 5718 5720 5721 5722 5723 5723 5724 5725 5727 5728 5730 5731 5734 5736 5739 5741 5742 5745 5749 5752 5754 5756 5759 5762 5765 5767 5769 5772 5776 5778 5780 5784 5787 5789 5791 5794 5797 5800 5803 5804 5806 5808 5810 5812 5814 5817 5819 5822 5824 5825 5826 5827 5828 5829 5831 5833 5835
5730 5729 5727 5726 5725 5724 5722 5722 5721 5720 5719 5719 5719 5718 5718 5717 5717 5717 5716 5715 5715 5716 5716 5716 5716 5716 5716 5716 5716 5716 5717 5718 5720 5721 5721 5722 5723 5724 5725 5726 5727 5729 5732 5734 5736 5738 5740 5743 5746 5749 5751 5754 5757 5760 5763 5765 5768 5771 5773 5776 5779 5782 5784 5786 5790 5793 5797 5800 5802 5804 5805 5806 5808 5811 5814 5816 5818 5820 5822 5823 5825 5826 5827 5828 5830 5832
5730 5728 5727 5725 5723 5722 5721 5720 5719 5718 5717 5717 5717 5716 5716 5715 5715 5714 5714 5713 5713 5713 5713 5713 5713 5713 5713 5713 5713 5713 5714 5716 5717 5718 5719 5719 5719 5720 5721 5722 5723 5725 5727 5729 5731 5734 5735 5737 5740 5744 5746 5749 5752 5756 5759 5761 5763 5766 5769 5772 5774 5777 5779 5781 5785 5789 5793 5797 5798 5800 5801 5802 5805 5808 5810 5813 5815 5816 5818 5820 5822 5823 5825 5826 5827 5829
5729 5727 5726 5724 5722 5721 5720 5718 5717 5717 5716 5715 5715 5714 5714 5713 5713 5712 5711 5711 5711 5711 5711 5711 5711 5711 5711 5711 5710 5711 5712 5713 5715 5715 5715 5715 5716 5717 5717 5718 5719 5721 5722 5724 5726 5728 5730 5732 5734 5737 5740 5744 5747 5751 5754 5756 5759 5761 5764 5767 5769 5772 5774 5776 5780 5785 5788 5790 5792 5793 5796 5798 5801 5804 5807 5810 5812 5814 5816 5817 5818 5820 5823 5824 5826 5827
5728 5727 5725 5723 5722 5720 5718 5717 5716 5716 5715 5714 5713 5713 5712 5711 5710 5710 5709 5710 5709 5709 5709 5709 5710 5709 5709 5709 5709 5709 5710 5710 5711 5712 5712 5712 5713 5713 5714 5714 5715 5716 5717 5719 5721 5722 5724 5726 5728 5731 5734 5738 5741 5745 5748 5752 5754 5757 5760 5763 5764 5767 5769 5771 5776 5779 5781 5784 5786 5787 5790 5794 5798 5801 5804 5807 5811 5814 5816 5816 5817 5819 5821 5822 5824 5825
5728 5726 5724 5723 5721 5720 5718 5717 5716 5714 5714 5713 5712 5711 5710 5709 5709 5708 5708 5708 5708 5707 5706 5707 5708 5707 5707 5708 5708 5707 5707 5707 5707 5708 5709 5709 5709 5710 5710 5710 5711 5711 5712 5714 5715 5716 5718 5720 5722 5724 5727 5731 5735 5739 5742 5746 5749 5751 5754 5758 5760 5763 5765 5768 5771 5773 5775 5778 5780 5781 5784 5790 5794 5798 5802 5806 5809 5812 5813 5814 5814 5816 5818 5820 5821 5822
5726 5725 5724 5722 5721 5719 5718 5717 5715 5714 5713 5712 5710 5709 5708 5707 5707 5706 5706 5706 5706 5706 5705 5705 5705 5705 5705 5705 5705 5705 5704 5703 5704 5705 5705 5706 5706 5706 5706 5707 5707 5707 5708 5709 5709 5711 5712 5714 5716 5718 5720 5724 5729 5732 5736 5740 5743 5746 5749 5752 5756 5758 5761 5764 5766 5768 5770 5772 5773 5775 5780 5785 5789 5794 5799 5802 5805 5807 5808 5809 5810 5812 5815 5817 5818 5819
5725 5724 5723 5722 5720 5719 5718 5717 5715 5713 5712 5711 5709 5708 5707 5706 5705 5705 5705 5704 5704 5704 5703 5702 5702 5703 5704 5703 5702 5702 5701 5700 5701 5701 5702 5702 5702 5702 5702 5703 5703 5703 5703 5704 5704 5706 5707 5708 5710 5712 5714 5718 5722 5726 5729 5733 5737 5740 5743 5746 5750 5753 5755 5759 5761 5763 5765 5766 5769 5771 5775 5780 5786 5790 5794 5797 5799 5801 5803 5804 5807 5809 5812 5813 5815 5816
5724 5722 5721 5721 5720 5719 5717 5716 5714 5713 5711 5710 5708 5707 5706 5705 5704 5704 5704 5703 5702 5703 5702 5700 5701 5702 5702 5700 5699 5699 5699 5699 5699 5699 5699 5699 5699 5699 5698 5698 5698 5698 5699 5699 5699 5700 5701 5703 5705 5706 5708 5711 5715 5719 5723 5726 5730 5734 5737 5740 5744 5747 5750 5754 5757 5759 5761 5763 5766 5768 5770 5775 5781 5786 5790 5792 5794 5796 5798 5801 5803 5806 5808 5810 5811 5813
5723 5721 5720 5719 5718 5718 5716 5715 5713 5712 5711 5709 5707 5706 5705 5705 5704 5703 5702 5702 5702 5701 5700 5699 5699 5700 5700 5698 5697 5697 5697 5697 5697 5696 5696 5696 5696 5695 5695 5694 5694 5694 5693 5694 5694 5694 5695 5697 5699 5700 5702 5705 5708 5712 5716 5719 5723 5727 5730 5734 5738 5742 5745 5748 5752 5755 5757 5758 5762 5765 5767 5772 5777 5781 5785 5787 5789 5791 5794 5797 5800 5802 5805 5806 5808 5810
5722 5721 5719 5718 5717 5716 5716 5714 5713 5711 5710 5709 5707 5706 5705 5704 5703 5702 5701 5701 5701 5700 5698 5697 5697 5698 5698 5696 5695 5696 5695 5694 5694 5694 5693 5693 5692 5691 5691 5690 5689 5688 5688 5687 5687 5688 5688 5690 5692 5694 5696 5698 5701 5705 5708 5712 5716 5720 5724 5728 5732 5736 5739 5742 5746 5750 5752 5754 5757 5762 5765 5769 5772 5776 5779 5782 5784 5787 5790 5793 5796 5799 5801 5802 5805 5807
5721 5720 5718 5717 5715 5715 5714 5712 5711 5710 5709 5708 5707 5705 5704 5703 5702 5701 5700 5700 5700 5698 5697 5696 5696 5696 5696 5694 5693 5693 5692 5691 5690 5690 5689 5689 5689 5688 5687 5685 5684 5683 5682 5681 5679 5679 5680 5682 5684 5687 5689 5691 5694 5697 5701 5704 5708 5712 5717 5721 5725 5729 5733 5735 5740 5744 5747 5749 5752 5757 5762 5765 5767 5769 5773 5777 5780 5783 5785 5789 5792 5794 5795 5798 5801 5804
5719 5718 5717 5716 5715 5713 5712 5711 5709 5708 5708 5707 5706 5705 5704 5702 5701 5701 5700 5699 5699 5697 5696 5695 5695 5695 5694 5692 5691 5690 5688 5688 5687 5687 5686 5686 5685 5684 5682 5680 5679 5677 5676 5674 5672 5671 5671 5673 5676 5679 5682 5684 5686 5690 5693 5697 5700 5704 5709 5713 5717 5722 5727 5730 5734 5737 5741 5744 5747 5751 5757 5760 5762 5764 5767 5771 5775 5778 5781 5784 5787 5789 5791 5794 5797 5800
5718 5716 5715 5715 5714 5712 5711 5710 5708 5708 5707 5706 5705 5704 5703 5702 5701 5700 5699 5698 5697 5696 5695 5694 5694 5693 5692 5690 5689 5688 5687 5687 5685 5684 5683 5682 5681 5680 5678 5675 5673 5671 5669 5668 5666 5664 5663 5664 5667 5671 5674 5677 5679 5682 5686 5689 5693 5697 5701 5706 5710 5715 5720 5723 5727 5731 5736 5739 5742 5746 5751 5755 5757 5759 5762 5766 5769 5772 5775 5778 5781 5783 5786 5790 5793 5796
5716 5715 5713 5713 5712 5711 5710 5709 5708 5707 5706 5705 5704 5703 5702 5701 5700 5699 5698 5697 5696 5695 5694 5693 5693 5692 5690 5688 5687 5686 5685 5684 5682 5681 5679 5678 5676 5675 5673 5670 5668 5665 5663 5662 5660 5658 5656 5657 5659 5662 5666 5669 5672 5674 5678 5681 5685 5690 5694 5699 5703 5708 5713 5716 5721 5726 5731 5734 5737 5741 5745 5749 5752 5754 5757 5761 5764 5766 5769 5773 5775 5778 5782 5785 5788 5791
5715 5714 5712 5711 5711 5710 5709 5708 5707 5706 5705 5704 5703 5702 5701 5700 5699 5698 5697 5696 5694 5693 5693 5692 5691 5690 5688 5686 5685 5683 5681 5680 5678 5677 5675 5673 5672 5670 5668 5665 5662 5660 5657 5656 5654 5652 5650 5650 5651 5654 5658 5662 5665 5667 5670 5673 5678 5682 5687 5692 5696 5701 5705 5709 5714 5720 5725 5728 5731 5736 5740 5743 5747 5750 5752 5755 5758 5761 5763 5766 5769 5772 5776 5779 5782 5785
5713 5712 5710 5710 5709 5709 5708 5707 5705 5705 5704 5703 5702 5701 5700 5699 5698 5697 5696 5694 5693 5692 5691 5690 5689 5688 5686 5684 5682 5680 5678 5676 5674 5673 5671 5669 5668 5666 5663 5660 5657 5654 5652 5650 5649 5647 5645 5645 5645 5647 5650 5654 5657 5660 5662 5666 5670 5674 5679 5684 5689 5694 5698 5703 5708 5714 5719 5723 5726 5731 5734 5737 5741 5744 5747 5750 5754 5757 5758 5760 5762 5766 5770 5773 5776 5779
5711 5710 5708 5708 5708 5707 5706 5705 5704 5703 5702 5701 5700 5699 5698 5697 5696 5695 5694 5693 5692 5691 5690 5689 5687 5686 5685 5682 5680 5678 5677 5675 5673 5671 5669 5667 5664 5662 5659 5655 5652 5649 5647 5645 5643 5642 5641 5640 5640 5641 5643 5646 5649 5653 5655 5658 5662 5666 5671 5676 5681 5687 5692 5696 5702 5708 5713 5717 5721 5725 5729 5732 5736 5739 5742 5745 5748 5751 5753 5755 5757 5761 5765 5768 5771 5774
5709 5708 5706 5706 5705 5704 5703 5702 5701 5701 5700 5699 5698 5697 5696 5695 5694 5694 5693 5692 5691 5690 5688 5687 5686 5684 5682 5680 5678 5676 5675 5673 5671 5669 5667 5664 5661 5659 5656 5653 5648 5645 5642 5640 5638 5637 5636 5635 5635 5635 5637 5640 5643 5645 5648 5651 5654 5658 5663 5669 5674 5679 5685 5689 5695 5700 5706 5711 5715 5719 5723 5727 5731 5734 5737 5740 5743 5746 5749 5750 5753 5757 5760 5762 5766 5769
5707 5706 5705 5704 5703 5702 5701 5700 5699 5698 5698 5697 5696 5695 5694 5693 5692 5691 5691 5690 5689 5688 5687 5685 5684 5682 5679 5677 5675 5672 5671 5669 5667 5665 5663 5660 5657 5655 5652 5650 5646 5642 5638 5635 5633 5632 5631 5630 5630 5631 5632 5634 5636 5639 5642 5644 5647 5651 5655 5661 5666 5672 5677 5682 5687 5693 5699 5705 5710 5714 5718 5722 5726 5729 5731 5735 5738 5742 5744 5746 5749 5753 5755 5757 5760 5763
5705 5704 5704 5703 5702 5701 5700 5699 5698 5696 5696 5695 5694 5693 5692 5691 5690 5689 5688 5687 5687 5686 5685 5683 5682 5679 5676 5674 5672 5669 5667 5664 5662 5661 5659 5656 5654 5651 5648 5645 5643 5639 5635 5631 5628 5627 5626 5625 5626 5626 5627 5629 5631 5633 5635 5638 5641 5644 5648 5653 5659 5665 5670 5675 5680 5686 5692 5699 5704 5707 5711 5716 5721 5724 5726 5730 5734 5737 5739 5741 5743 5746 5749 5752 5755 5757
5703 5702 5702 5702 5701 5700 5699 5697 5696 5695 5694 5693 5692 5691 5691 5690 5689 5688 5686 5685 5684 5683 5682 5681 5679 5676 5673 5671 5669 5667 5665 5662 5660 5658 5655 5653 5650 5647 5644 5641 5638 5635 5631 5627 5624 5622 5621 5621 5621 5621 5622 5624 5626 5628 5630 5632 5635 5638 5642 5646 5652 5657 5662 5668 5673 5679 5685 5692 5697 5701 5705 5709 5714 5718 5721 5725 5729 5732 5733 5734 5736 5740 5744 5747 5750 5752
5702 5701 5700 5700 5700 5698 5697 5695 5694 5693 5692 5691 5690 5689 5689 5688 5687 5687 5685 5684 5682 5681 5680 5678 5676 5673 5671 5669 5667 5665 5662 5660 5658 5655 5652 5650 5647 5644 5641 5638 5634 5631 5627 5623 5620 5617 5616 5616 5616 5617 5617 5619 5621 5623 5625 5627 5630 5633 5636 5640 5645 5650 5655 5661 5666 5672 5678 5684 5690 5694 5699 5703 5706 5711 5716 5719 5722 5725 5725 5727 5731 5735 5739 5743 5746 5749
5700 5699 5698 5698 5698 5696 5695 5693 5692 5690 5689 5688 5688 5687 5687 5686 5685 5684 5683 5682 5680 5679 5677 5676 5674 5672 5668 5666 5664 5662 5660 5658 5655 5652 5649 5647 5645 5641 5638 5635 5631 5627 5623 5619 5616 5613 5612 5612 5612 5612 5613 5614 5616 5618 5620 5622 5625 5628 5631 5634 5639 5644 5649 5654 5659 5665 5671 5677 5684 5689 5693 5697 5700 5705 5710 5713 5716 5718 5720 5723 5726 5730 5734 5738 5742 5745
5699 5698 5697 5696 5695 5694 5693 5691 5690 5688 5687 5686 5685 5684 5683 5683 5682 5681 5680 5678 5677 5676 5674 5673 5673 5671 5667 5664 5662 5660 5658 5656 5653 5650 5647 5644 5642 5639 5635 5632 5628 5624 5619 5616 5613 5610 5608 5608 5608 5608 5609 5610 5611 5613 5615 5617 5620 5623 5626 5629 5633 5638 5642 5648 5653 5658 5664 5670 5677 5682 5687 5691 5694 5698 5703 5707 5711 5714 5717 5719 5722 5726 5730 5733 5737 5739
5697 5696 5695 5694 5694 5693 5692 5691 5688 5686 5684 5683 5682 5681 5681 5680 5679 5678 5677 5676 5675 5673 5671 5670 5670 5669 5666 5663 5661 5658 5656 5653 5651 5649 5645 5642 5640 5637 5632 5629 5625 5621 5617 5613 5610 5607 5605 5604 5604 5604 5605 5606 5607 5608 5610 5613 5615 5618 5621 5624 5628 5632 5636 5641 5647 5652 5657 5663 5669 5675 5680 5685 5689 5693 5697 5702 5706 5709 5712 5715 5717 5721 5724 5727 5731 5733
5695 5694 5693 5692 5691 5691 5690 5689 5687 5685 5683 5681 5680 5679 5678 5678 5677 5676 5675 5674 5673 5671 5669 5667 5665 5665 5663 5661 5659 5656 5654 5651 5649 5646 5643 5640 5637 5635 5630 5626 5622 5619 5615 5611 5607 5605 5602 5600 5599 5599 5600 5601 5603 5604 5606 5608 5610 5613 5616 5619 5623 5627 5631 5636 5641 5646 5650 5656 5662 5668 5674 5680 5685 5689 5692 5696 5700 5704 5707 5710 5712 5715 5718 5721 5725 5727
5692 5691 5690 5690 5689 5688 5687 5686 5684 5682 5681 5679 5678 5677 5676 5675 5674 5673 5673 5672 5670 5669 5668 5665 5662 5660 5659 5657 5655 5653 5651 5648 5645 5642 5639 5636 5634 5631 5627 5623 5620 5617 5613 5609 5605 5602 5599 5597 5595 5595 5596 5597 5598 5599 5601 5603 5605 5608 5610 5614 5617 5621 5626 5630 5636 5640 5644 5650 5656 5663 5669 5674 5679 5684 5687 5690 5694 5698 5701 5704 5707 5709 5712 5715 5718 5721
5690 5689 5688 5687 5686 5685 5684 5683 5681 5680 5678 5677 5675 5674 5673 5672 5671 5670 5670 5669 5667 5666 5665 5663 5660 5657 5655 5653 5651 5649 5647 5644 5642 5638 5635 5632 5630 5628 5625 5621 5618 5614 5611 5608 5604 5600 5596 5594 5591 5591 5592 5592 5593 5595 5596 5598 5601 5603 5605 5608 5611 5616 5621 5625 5630 5635 5639 5645 5651 5658 5663 5668 5673 5678 5682 5684 5687 5691 5694 5697 5700 5703 5706 5709 5712 5716
5688 5687 5686 5684 5683 5683 5682 5681 5679 5678 5676 5675 5673 5672 5670 5669 5668 5667 5666 5665 5664 5663 5661 5660 5658 5655 5652 5649 5648 5645 5643 5640 5638 5635 5631 5629 5627 5626 5623 5619 5616 5612 5609 5606 5602 5598 5594 5591 5588 5587 5587 5588 5589 5590 5592 5593 5595 5598 5600 5603 5606 5611 5616 5620 5625 5630 5635 5640 5645 5651 5657 5661 5666 5672 5676 5678 5681 5685 5689 5692 5695 5698 5702 5704 5706 5709
5686 5685 5684 5682 5681 5680 5679 5678 5677 5676 5674 5673 5671 5669 5667 5666 5665 5664 5663 5661 5660 5659 5657 5656 5655 5653 5650 5647 5645 5642 5640 5637 5634 5633 5630 5627 5625 5623 5620 5617 5614 5611 5607 5604 5600 5597 5593 5589 5586 5584 5583 5584 5585 5586 5587 5589 5590 5593 5596 5598 5602 5606 5611 5615 5620 5625 5630 5635 5640 5645 5650 5654 5659 5665 5670 5671 5674 5679 5683 5686 5689 5693 5697 5699 5701 5704
5684 5683 5682 5680 5679 5678 5677 5675 5674 5673 5672 5671 5669 5667 5665 5664 5663 5661 5660 5658 5657 5655 5654 5652 5651 5650 5648 5645 5643 5640 5637 5634 5632 5630 5628 5626 5623 5620 5618 5615 5612 5608 5605 5603 5599 5596 5592 5588 5584 5581 5580 5580 5581 5581 5582 5584 5585 5588 5591 5594 5598 5602 5606 5611 5615 5620 5626 5630 5634 5637 5642 5647 5652 5658 5663 5665 5668 5672 5677 5680 5684 5688 5691 5693 5695 5698
5682 5681 5680 5678 5677 5676 5674 5673 5672 5671 5670 5669 5667 5665 5663 5661 5660 5659 5658 5656 5654 5652 5651 5650 5649 5647 5645 5643 5641 5639 5636 5633 5630 5628 5626 5624 5621 5618 5615 5613 5610 5606 5604 5601 5598 5595 5591 5587 5583 5580 5578 5577 5577 5577 5578 5579 5581 5584 5587 5591 5594 5597 5602 5606 5611 5616 5621 5626 5629 5632 5635 5640 5645 5651 5655 5658 5661 5665 5670 5674 5677 5682 5685 5686 5687 5690
5679 5678 5677 5676 5674 5674 5672 5670 5669 5668 5667 5667 5665 5663 5662 5660 5658 5657 5656 5654 5652 5650 5648 5647 5646 5644 5642 5640 5638 5636 5633 5630 5627 5624 5622 5620 5618 5615 5612 5610 5608 5605 5602 5600 5597 5594 5590 5587 5583 5579 5576 5575 5574 5574 5574 5575 5577 5580 5584 5588 5591 5594 5598 5602 5607 5611 5616 5620 5624 5627 5630 5634 5639 5644 5648 5651 5654 5659 5664 5668 5670 5674 5677 5678 5678 5682
5677 5676 5675 5673 5672 5671 5670 5668 5667 5666 5665 5664 5662 5661 5659 5658 5656 5655 5653 5651 5649 5647 5646 5644 5642 5641 5639 5637 5634 5632 5630 5627 5624 5620 5618 5616 5614 5612 5610 5608 5606 5604 5602 5599 5596 5593 5590 5587 5583 5580 5576 5574 5572 5572 5572 5573 5575 5578 5582 5585 5588 5592 5596 5600 5603 5606 5611 5615 5619 5622 5625 5628 5634 5640 5644 5646 5648 5653 5658 5662 5664 5665 5665 5667 5669 5674
5674 5673 5672 5671 5670 5669 5668 5666 5665 5664 5663 5661 5660 5659 5657 5655 5654 5652 5651 5649 5647 5645 5643 5642 5640 5638 5636 5634 5632 5629 5627 5624 5621 5618 5615 5613 5612 5610 5608 5606 5604 5603 5601 5598 5595 5592 5589 5586 5583 5580 5576 5573 5571 5570 5570 5571 5572 5575 5579 5582 5586 5589 5593 5597 5600 5603 5607 5611 5614 5618 5621 5624 5628 5634 5640 5642 5643 5646 5651 5655 5657 5657 5657 5661 5665 5670
5672 5671 5670 5669 5668 5667 5666 5664 5663 5662 5660 5659 5657 5657 5655 5653 5652 5650 5649 5647 5645 5644 5642 5640 5638 5636 5633 5631 5630 5628 5625 5622 5620 5617 5614 5611 5609 5608 5606 5604 5603 5601 5599 5597 5594 5591 5588 5585 5582 5580 5576 5573 5571 5569 5569 5569 5570 5573 5576 5579 5583 5586 5590 5593 5597 5600 5603 5606 5609 5613 5617 5619 5622 5626 5631 5635 5637 5640 5644 5648 5650 5650 5652 5656 5660 5663
5670 5670 5668 5666 5665 5665 5663 5662 5661 5660 5658 5656 5655 5654 5653 5651 5650 5648 5646 5645 5643 5642 5640 5637 5636 5634 5632 5629 5628 5626 5624 5621 5618 5616 5614 5611 5608 5606 5605 5603 5601 5600 5598 5596 5594 5591 5588 5586 5583 5580 5576 5572 5570 5569 5568 5568 5569 5570 5573 5576 5580 5583 5586 5589 5593 5596 5599 5602 5605 5608 5611 5614 5617 5619 5622 5626 5630 5634 5637 5641 5643 5645 5648 5651 5653 5656
5667 5667 5666 5664 5663 5661 5660 5659 5659 5658 5656 5654 5653 5652 5650 5649 5647 5646 5644 5643 5642 5640 5638 5636 5633 5631 5629 5627 5626 5624 5621 5619 5617 5614 5612 5610 5607 5604 5603 5602 5600 5599 5596 5594 5593 5591 5589 5586 5584 5581 5577 5573 5570 5569 5569 5569 5568 5569 5571 5573 5576 5579 5582 5585 5588 5592 5595 5598 5601 5604 5606 5609 5611 5614 5616 5619 5623 5627 5630 5632 5635 5638 5642 5646 5648 5650
5664 5664 5663 5662 5660 5659 5658 5657 5656 5654 5653 5652 5651 5650 5648 5647 5645 5643 5642 5641 5639 5638 5636 5634 5632 5629 5627 5625 5623 5621 5619 5617 5615 5612 5610 5608 5605 5603 5601 5600 5598 5597 5596 5594 5592 5591 5589 5586 5584 5582 5579 5576 5572 5570 5570 5569 5569 5569 5570 5571 5573 5576 5578 5581 5584 5587 5590 5593 5596 5599 5601 5604 5606 5608 5611 5614 5617 5620 5623 5625 5628 5632 5636 5639 5642 5644
5660 5660 5660 5659 5658 5656 5655 5654 5653 5652 5650 5649 5648 5647 5646 5645 5643 5641 5639 5638 5637 5635 5634 5632 5630 5627 5625 5623 5621 5619 5616 5615 5613 5611 5608 5606 5604 5602 5600 5598 5596 5595 5594 5593 5591 5590 5588 5586 5584 5582 5580 5578 5574 5572 5571 5570 5569 5569 5569 5570 5571 5573 5575 5577 5579 5582 5585 5588 5591 5593 5596 5598 5600 5603 5605 5608 5611 5614 5617 5620 5623 5626 5629 5632 5634 5637
5658 5657 5657 5656 5655 5654 5653 5651 5650 5649 5648 5646 5645 5645 5644 5642 5641 5639 5637 5636 5634 5633 5631 5630 5627 5625 5623 5620 5618 5616 5614 5612 5611 5608 5606 5604 5602 5600 5599 5597 5596 5594 5593 5591 5590 5588 5587 5585 5583 5581 5580 5578 5576 5574 5572 5571 5570 5569 5568 5569 5569 5570 5572 5573 5575 5577 5580 5582 5585 5587 5590 5592 5595 5597 5600 5602 5604 5607 5610 5613 5616 5619 5623 5625 5627 5630
5655 5654 5654 5653 5652 5651 5650 5648 5647 5646 5646 5644 5643 5642 5641 5640 5638 5637 5635 5633 5632 5631 5629 5627 5625 5623 5621 5618 5616 5614 5613 5611 5609 5607 5604 5602 5601 5599 5597 5596 5594 5593 5591 5590 5588 5587 5586 5584 5583 5581 5579 5578 5577 5575 5574 5572 5571 5569 5568 5568 5568 5568 5569 5570 5572 5573 5575 5577 5579 5581 5583 5586 5588 5591 5593 5596 5598 5600 5604 5607 5610 5613 5616 5619 5621 5624
5652 5651 5650 5650 5649 5648 5647 5646 5644 5643 5643 5642 5641 5640 5638 5637 5636 5634 5633 5631 5630 5628 5627 5624 5623 5621 5618 5617 5615 5613 5611 5609 5607 5605 5603 5601 5598 5597 5595 5593 5592 5590 5589 5588 5586 5585 5584 5583 5581 5580 5579 5578 5577 5576 5574 5573 5571 5571 5569 5568 5568 5567 5568 5568 5569 5570 5571 5572 5573 5575 5576 5578 5580 5583 5585 5588 5590 5593 5596 5600 5602 5606 5609 5612 5615 5618
5649 5648 5647 5646 5646 5645 5645 5643 5641 5640 5640 5640 5639 5637 5636 5635 5633 5632 5631 5630 5628 5626 5625 5623 5621 5619 5617 5615 5613 5611 5610 5608 5606 5604 5602 5599 5597 5595 5593 5591 5590 5588 5587 5585 5584 5583 5582 5581 5580 5579 5578 5577 5576 5575 5574 5572 5571 5571 5570 5569 5568 5567 5567 5567 5567 5567 5568 5569 5570 5570 5571 5571 5572 5574 5576 5578 5581 5584 5588 5591 5594 5598 5602 5605 5608 5611
5645 5644 5644 5644 5643 5642 5642 5640 5638 5637 5637 5637 5636 5635 5633 5632 5631 5629 5629 5627 5626 5624 5623 5621 5619 5617 5615 5613 5612 5610 5608 5606 5604 5602 5600 5598 5596 5594 5592 5590 5588 5586 5585 5583 5582 5580 5579 5578 5577 5577 5576 5575 5575 5574 5573 5572 5571 5570 5569 5568 5568 5567 5566 5566 5565 5565 5566 5566 5566 5566 5565 5565 5565 5566 5566 5568 5570 5574 5578 5582 5585 5589 5593 5596 5600 5605
5641 5640 5641 5641 5640 5639 5638 5637 5636 5635 5634 5634 5633 5632 5631 5630 5628 5627 5626 5625 5624 5623 5621 5619 5617 5615 5613 5612 5610 5609 5607 5605 5603 5601 5599 5597 5595 5593 5591 5589 5587 5585 5584 5582 5580 5579 5577 5576 5575 5575 5574 5573 5573 5572 5571 5570 5569 5568 5567 5566 5565 5565 5565 5564 5564 5563 5563 5562 5561 5561 5559 5559 5558 5557 5557 5558 5560 5563 5567 5571 5575 5580 5584 5587 5592 5596
5638 5637 5638 5638 5637 5636 5635 5634 5633 5633 5632 5631 5629 5629 5628 5627 5626 5625 5624 5622 5621 5621 5619 5617 5615 5614 5612 5610 5609 5607 5605 5603 5601 5599 5598 5596 5594 5592 5590 5588 5586 5584 5582 5581 5579 5577 5576 5574 5574 5573 5572 5571 5570 5570 5570 5569 5568 5567 5565 5564 5563 5562 5562 5562 5561 5559 5559 5558 5556 5554 5552 5551 5549 5547 5547 5547 5549 5552 5555 5559 5564 5570 5573 5576 5581 5587
5633 5635 5635 5635 5634 5633 5631 5631 5631 5630 5629 5628 5626 5625 5625 5624 5623 5622 5621 5620 5619 5618 5617 5615 5614 5612 5610 5609 5607 5606 5603 5601 5600 5598 5596 5594 5593 5591 5590 5588 5586 5584 5582 5580 5578 5576 5574 5572 5571 5571 5570 5569 5568 5568 5567 5567 5566 5565 5563 5561 5560 5560 5559 5558 5557 5556 5555 5554 5552 5548 5544 5540 5537 5535 5533 5532 5535 5538 5542 5547 5554 5559 5562 5567 5574 5580
5629 5632 5632 5632 5631 5630 5628 5628 5628 5628 5626 5625 5623 5623 5622 5621 5620 5619 5618 5617 5616 5615 5614 5613 5612 5610 5609 5607 5605 5604 5601 5599 5598 5596 5594 5593 5591 5590 5588 5586 5585 5583 5581 5579 5577 5575 5573 5571 5569 5568 5567 5566 5566 5565 5564 5564 5564 5562 5561 5559 5558 5557 5557 5555 5553 5551 5550 5549 5546 5542 5537 5532 5528 5523 5519 5518 5519 5523 5529 5537 5545 5550 5555 5561 5568 5573
5627 5628 5629 5628 5628 5627 5625 5625 5625 5625 5624 5622 5620 5620 5619 5618 5617 5616 5615 5614 5613 5612 5611 5610 5609 5608 5607 5605 5603 5602 5600 5597 5596 5594 5593 5591 5590 5588 5587 5585 5583 5582 5580 5578 5576 5574 5572 5570 5568 5566 5565 5564 5563 5562 5561 5561 5560 5560 5558 5557 5555 5554 5554 5552 5550 5547 5545 5543 5540 5536 5532 5528 5523 5518 5512 5509 5509 5512 5520 5529 5537 5543 5549 5556 5561 5566